STARLINK-33815, 63497

Orbit data source: Space-Track

STARLINK-33815, 63497 is a payload satellite owned by SpaceX/Seattle (US) in LEO that was launched on Mon, 07 Apr 2025 UTC via an FALCON 9 launch vehicle from the Air Force Western Test Range (AFWTR). Payload-class satellites include a variety of spacecraft equipped with specific instruments for various scientific and technological missions. These include communications satellites like Starlink; space stations such as the ISS; scientific satellites like the Hubble; Earth observation satellites from companies like Planet Labs, Umbra, and HawkEye 360; GPS; miniature CubeSats for education and research; and military/defense satellites.

Loading next visibility...
Identifier
63497, 2025-071E
Orbit
LEO
Last TLE update
17 hours ago
Origin
Manufacturer
SpaceX/Seattle
Mission
Operational Commercial Communications
Bus & Motor
STARLINK V2MO, Unknown motor
Mass
575 kg wet, ~530 kg dry
Launch date (UTC)
2025-04-07 (3 months ago)
Launch vehicle
FALCON 9
Launch site
Air Force Western Test Range (AFWTR)
Object type
Payload
Rocket body
Debris
Shape & HBR
Box + 1 Pan, 14.5 m
Radar Cross Section
41.120 m², Large (>1 m²)

Expand to show TLE details & history

TLE from 17 hours ago
0 STARLINK-33815
1 63497U 25071E   25199.25356083  .00011295  00000-0  39284-3 0  9999
2 63497  53.1604 149.0759 0001403  70.9304 289.1849 15.30204810 16873
Epoch: 2025-07-18T06:05Z
TLE epoch observation values (Epoch: 2025-07-18T06:05:07.655Z)
Latitude
-0°
Longitude
121.48633°
Altitude
475.785 km
Speed
7.629 km/s
True Right ascension
09h 56m 18s
True Declination
0° 00' 00"
Sunlit
Object was in daylight at epoch
Visualization orbit readout
Latitude
-50.88255°
Longitude
51.83443°
Altitude
493.569 km
Speed
7.617 km/s
Apparent Right ascension
02h 20m 33s
Apparent Declination
-53° 26' 11"
Sunlit
Object is in daylight
Visualization observer readout
Local Sidereal Time
11:47:32
Azimuth
229.423° WSW
Elevation
-60.949°
Doppler factor
1
Orbital elements
Apogee altitude
476.419 km
Perigee altitude
474.496 km
Semi-major axis
6,853.594 km
Eccentricity
0.00014
Inclination
53.1604°
RAAN
149.0759°
Arg. of periapsis
70.9304°
True anomaly
289.16971°
Mean anomaly
289.1849°
Eccentric anomaly
289.17731°
Mean motion
3.8253 °/min
Orbital period
94.11 mins
BSTAR
0.00039284
Loading maneuver chart data...
Loading SW <> Apogee altitude chart data...
Loading historical data...
Loading historical data...
Loading historical data...
Loading historical data...
Loading historical data...
Loading historical data...
Loading historical data...
|